[[{"header":{"parameterUnit":"m.s-1","parameterCategory":1,"la1":30.2991,"la2":30.254,"lo1":-89.0895,"lo2":-89.0444,"dy":0.0017,"dx":0.0017,"nx":28,"ny":28,"refTime":"2023-09-20T09:00:00:Z","depth":0,"parameterNumber":2,"parameterNumberName":"U-component_of_WINDS"},"data":[0,0,0,0,0,0,0,0,0,0,0,0,0,0,0,0,0,0,0,0,0,0,0,0,0,0,0,0,0,0,0,0,0,0,0,0,0,0,0,0,0,0,0,0,0,0,0,0,0,0,0,0,0,0,0,0,0,0,-4.246,-4.246,0,-4.2485,-4.2485,-4.2485,-4.2314,-4.2309,-4.2304,-4.23,-4.2326,-4.2331,-4.2336,0,0,0,0,0,0,0,0,0,0,0,0,0,-4.2263,-4.2267,-4.246,-4.246,-4.246,-4.2485,-4.2485,-4.2485,-4.2315,-4.2309,-4.2303,-4.2297,-4.2324,-4.2331,-4.2337,0,0,0,0,0,0,0,0,0,0,0,0,0,-4.2324,-4.2269,-4.2459,-4.2378,-4.2371,-4.2485,-4.2485,-4.2486,-4.2316,-4.2309,-4.2301,-4.2295,-4.2322,-4.233,-4.2338,-4.2531,0,0,-4.2362,-4.2365,0,0,0,0,0,0,0,0,-4.2321,-4.2332,-4.239,-4.2384,-4.2376,-4.2389,-4.2425,-4.2501,-4.2318,-4.2337,-4.2299,-4.2291,-4.2353,-4.2358,-4.2378,-4.2532,-4.2534,-4.2362,-4.2367,-4.237,-4.2373,0,0,0,0,0,0,0,-4.2317,-4.233,-4.2469,-4.2391,-4.2382,-4.234,-4.2341,-4.2439,-4.2385,-4.2335,-4.2322,-4.2327,-4.2348,-4.2371,-4.2378,-4.2534,-4.2362,-4.2369,-4.2374,-4.2377,-4.2848,-4.2856,0,0,0,0,0,0,-4.2324,-4.2327,-4.2469,-4.247,-4.233,-4.2349,-4.235,-4.2392,-4.2384,-4.2375,-4.2334,-4.2319,-4.2361,-4.2369,-4.2378,-4.2605,-4.237,-4.2378,-4.2382,-4.2841,-4.285,-4.2858,0,0,0,0,0,0,-4.232,-4.2338,-4.2468,-4.2395,-4.2409,-4.236,-4.2409,-4.2396,-4.242,-4.2383,-4.2373,-4.2368,-4.2356,-4.2367,-4.2494,-4.2603,-4.2381,-4.2388,-4.2831,-4.2843,-4.2854,-4.306,0,0,0,0,0,0,-4.2315,-4.2338,-4.2411,-4.2398,-4.2413,-4.2585,-4.2415,-4.2402,-4.2434,-4.2415,-4.2412,-4.2405,-4.2351,-4.2484,-4.2502,-4.261,-4.2394,-4.2821,-4.2837,-4.2851,-4.3044,-4.3078,-4.3107,0,0,0,0,0,-4.2309,-4.2468,-4.2416,-4.2434,-4.2504,-4.2591,-4.2599,-4.2535,-4.2443,-4.2516,-4.2493,-4.2405,-4.2588,-4.2498,-4.2518,-4.263,-4.2814,-4.2832,-4.2849,-4.3029,-4.3071,-4.3106,0,0,0,0,0,0,-4.2495,-4.2465,-4.2406,-4.2566,-4.2583,-4.2562,-4.2652,-4.2581,-4.2623,-4.2604,-4.2522,-4.2523,-4.2664,-4.2659,-4.2559,-4.2816,-4.2685,-4.2708,-4.2815,-4.2854,-4.2885,-4.2885,-4.2401,0,0,0,0,0,-4.2554,-4.2628,-4.2597,-4.2741,-4.2752,-4.2702,-4.2737,-4.2686,-4.2699,-4.2705,-4.2691,-4.2708,-4.2768,-4.2811,-4.2865,-4.3041,-4.3038,-4.3127,-4.3159,-4.3185,-4.3206,-4.33,-4.3339,-4.2916,-4.2916,-4.2916,0,0,-4.2679,-4.2671,-4.2723,-4.2779,-4.2785,-4.2863,-4.2709,-4.2798,-4.2855,-4.2719,-4.2839,-4.2829,-4.2841,-4.2995,-4.3061,-4.2995,-4.3322,-4.3208,-4.3229,-4.3235,-4.3322,-4.3362,-4.3398,-4.2928,-4.2926,-4.2924,0,0,-4.2945,-4.2946,-4.3067,-4.3076,-4.3088,-4.3053,-4.3082,-4.3073,-4.3061,-4.318,-4.3079,-4.3145,-4.3252,-4.3266,-4.3287,-4.3558,-4.348,-4.3578,-4.3744,-4.3836,-4.3869,-4.3899,-4.3997,-4.4033,-4.3598,-4.3599,-4.3599,0,-4.3098,-4.3212,-4.3138,-4.3234,-4.3262,-4.3142,-4.3263,-4.3276,-4.3305,-4.3327,-4.3252,-4.3384,-4.3384,-4.3539,-4.3605,-4.3625,-4.3657,-4.3579,-4.387,-4.3899,-4.3925,-4.4018,-4.4055,-4.3611,-4.361,-4.3608,-4.3607,0,-4.34,-4.348,-4.3576,-4.3608,-4.3645,-4.3754,-4.3697,-4.3744,-4.3689,-4.3662,-4.3785,-4.3781,-4.3832,-4.3864,-4.3812,-4.4013,-4.3971,-4.3885,-4.3751,-4.3979,-4.4065,-4.4099,-4.3628,-4.3624,-4.362,-4.3617,0,0,-4.3786,-4.3775,-4.3811,-4.3824,-4.3828,-4.3889,-4.3991,-4.4042,-4.4085,-4.4108,-4.4193,-4.4286,-4.4206,-4.423,-4.4177,-4.4258,-4.4474,-4.4161,-4.416,-4.4221,-4.4697,-4.4764,-4.4806,-4.4421,-4.4427,-4.4433,-4.4696,0,-4.4047,-4.4223,-4.4159,-4.4339,-4.4413,-4.4299,-4.4388,-4.4401,-4.4378,-4.4437,-4.4411,-4.4479,-4.4367,-4.4381,-4.4456,-4.4433,-4.4569,-4.4412,-4.45,-4.4504,-4.4503,-4.485,-4.4921,-4.517,-4.4729,-4.4735,-4.4739,0,-4.4376,-4.4414,-4.4601,-4.4592,-4.4621,-4.4703,-4.4744,-4.4801,-4.4813,-4.479,-4.4817,-4.4747,-4.4847,-4.4712,-4.485,-4.4745,-4.4776,-4.477,-4.4778,-4.4785,-4.4637,-4.4869,-4.5248,-4.5286,-4.479,-4.4786,-4.4783,0,-4.4641,-4.4738,-4.4863,-4.4877,-4.487,-4.493,-4.493,-4.4933,-4.4968,-4.5003,-4.5025,-4.5072,-4.5098,-4.5136,-4.508,-4.4987,-4.5226,-4.5087,-4.5211,-4.5213,-4.5269,-4.5266,-4.566,-4.5287,-4.5286,-4.5285,-4.5285,0,-4.4941,-4.5061,-4.4982,-4.5059,-4.519,-4.5115,-4.5246,-4.5233,-4.5237,-4.531,-4.5213,-4.5283,-4.5204,-4.5267,-4.5224,-4.5345,-4.5357,-4.5342,-4.533,-4.5352,-4.5355,-4.5373,-4.5355,-4.5295,-4.5293,-4.5291,-4.529,0,-4.526,-4.5212,-4.5341,-4.5323,-4.5321,-4.5419,-4.5403,-4.5474,-4.5443,-4.5536,-4.5554,-4.5507,-4.5576,-4.5523,-4.5591,-4.5561,-4.5722,-4.5684,-4.5719,-4.5709,-4.5837,-4.5827,-4.6258,-4.6312,-4.5903,-4.5907,-4.591,0,-4.5456,-4.5545,-4.5537,-4.5579,-4.5585,-4.5653,-4.5687,-4.5616,-4.5656,-4.5676,-4.5745,-4.5805,-4.585,-4.5965,-4.5937,-4.5988,-4.5952,-4.6099,-4.5959,-4.5979,-4.5956,-4.5952,-4.5961,-4.6129,-4.6134,-4.6138,-4.6141,0,-4.5809,-4.578,-4.5834,-4.588,-4.5924,-4.5956,-4.5981,-4.6021,-4.5948,-4.5998,-4.6067,-4.6102,-4.6171,-4.6233,-4.6274,-4.6273,-4.6197,-4.6185,-4.6217,-4.6242,-4.6259,-4.6253,-4.5798,-4.6176,-4.6172,-4.617,-4.6168,-4.6166,-4.6073,-4.6147,-4.6153,-4.6216,-4.6227,-4.6253,-4.6318,-4.6296,-4.6353,-4.6403,-4.6357,-4.6441,-4.6449,-4.6497,-4.6506,-4.657,-4.6509,-4.6555,-4.6567,-4.658,-4.6599,-4.6247,-4.6577,-4.6576,-4.6575,-4.6574,-4.6573,0,-4.6422,-4.642,-4.6478,-4.6516,-4.6566,-4.6488,-4.6511,-4.6558,-4.6633,-4.6647,-4.6693,-4.6773,-4.6832,-4.6808,-4.686,-4.6916,-4.6882,-4.6933,-4.6929,-4.693,-4.665,-4.6618,-4.6959,-4.6959,-4.6959,-4.6959,-4.6959,-4.6959,-4.6609,-4.6731,-4.6704,-4.6831,-4.6827,-4.6908,-4.6929,-4.6952,-4.6962,-4.7056,-4.7105,-4.7089,-4.7088,-4.7139,-4.719,-4.7181,-4.7206,-4.7269,-4.7249,-4.6988,-4.695,-4.6913,-4.6883,-4.7275,-4.7275,-4.7523,-4.7526,-4.7528]},{"header":{"parameterUnit":"m.s-1","parameterCategory":1,"la1":30.2991,"la2":30.254,"lo1":-89.0895,"lo2":-89.0444,"dy":0.0017,"dx":0.0017,"nx":28,"ny":28,"refTime":"2023-09-20T09:00:00:Z","depth":0,"parameterNumber":3,"parameterNumberName":"V-component_of_WINDS"},"data":[0,0,0,0,0,0,0,0,0,0,0,0,0,0,0,0,0,0,0,0,0,0,0,0,0,0,0,0,0,0,0,0,0,0,0,0,0,0,0,0,0,0,0,0,0,0,0,0,0,0,0,0,0,0,0,0,0,0,-3.0923,-3.0922,0,-3.0852,-3.0852,-3.0851,-3.0799,-3.0799,-3.0798,-3.0798,-3.0727,-3.0726,-3.0724,0,0,0,0,0,0,0,0,0,0,0,0,0,-3.1013,-3.1012,-3.0923,-3.0922,-3.0921,-3.0853,-3.0852,-3.0851,-3.0799,-3.0799,-3.0798,-3.0798,-3.0728,-3.0726,-3.0724,0,0,0,0,0,0,0,0,0,0,0,0,0,-3.0961,-3.1011,-3.0923,-3.0887,-3.0884,-3.0853,-3.0851,-3.085,-3.08,-3.0799,-3.0798,-3.0798,-3.0728,-3.0726,-3.0724,-3.0724,0,0,-3.0717,-3.0716,0,0,0,0,0,0,0,0,-3.0964,-3.0958,-3.0894,-3.089,-3.0885,-3.0834,-3.0857,-3.0808,-3.08,-3.0832,-3.0798,-3.0797,-3.0763,-3.0758,-3.0747,-3.072,-3.0717,-3.0717,-3.0716,-3.0715,-3.0714,0,0,0,0,0,0,0,-3.0968,-3.0961,-3.0895,-3.0893,-3.0888,-3.0875,-3.0867,-3.0848,-3.0802,-3.0829,-3.0825,-3.0817,-3.0761,-3.0749,-3.0745,-3.0716,-3.0717,-3.0715,-3.0714,-3.0713,-3.0682,-3.0683,0,0,0,0,0,0,-3.0977,-3.0964,-3.0897,-3.0893,-3.0924,-3.0874,-3.0865,-3.0851,-3.0802,-3.0794,-3.0818,-3.0815,-3.0753,-3.0747,-3.0742,-3.0735,-3.0715,-3.0713,-3.0712,-3.0682,-3.0682,-3.0683,0,0,0,0,0,0,-3.0979,-3.0972,-3.09,-3.0927,-3.0917,-3.0873,-3.0858,-3.085,-3.0838,-3.0794,-3.0785,-3.0813,-3.0752,-3.0745,-3.0727,-3.0732,-3.0712,-3.071,-3.0681,-3.0682,-3.0683,-3.0724,0,0,0,0,0,0,-3.0982,-3.0973,-3.0973,-3.0928,-3.0916,-3.0888,-3.0858,-3.0849,-3.0834,-3.083,-3.0788,-3.078,-3.0751,-3.0731,-3.0725,-3.0729,-3.0708,-3.068,-3.0681,-3.0682,-3.0722,-3.0726,-3.073,0,0,0,0,0,-3.0985,-3.0988,-3.0973,-3.0965,-3.0915,-3.0888,-3.0881,-3.0847,-3.0835,-3.0833,-3.0805,-3.0781,-3.0733,-3.073,-3.0723,-3.0726,-3.068,-3.0681,-3.0682,-3.0721,-3.0726,-3.073,0,0,0,0,0,0,-3.1036,-3.0982,-3.0964,-3.0953,-3.0925,-3.0879,-3.0877,-3.0854,-3.083,-3.0827,-3.0787,-3.0778,-3.0764,-3.0743,-3.0741,-3.0721,-3.0703,-3.0703,-3.0735,-3.0739,-3.0743,-3.0748,-3.0706,0,0,0,0,0,-3.1045,-3.1028,-3.0982,-3.0976,-3.0963,-3.0923,-3.091,-3.0885,-3.0856,-3.0844,-3.0814,-3.0786,-3.0764,-3.0751,-3.0729,-3.0719,-3.0708,-3.0718,-3.0721,-3.0725,-3.0725,-3.0715,-3.0718,-3.0687,-3.0687,-3.0687,0,0,-3.1066,-3.1034,-3.1026,-3.0985,-3.0961,-3.0943,-3.0913,-3.0897,-3.0882,-3.0842,-3.0822,-3.0799,-3.0765,-3.0751,-3.0744,-3.0734,-3.0731,-3.0726,-3.0729,-3.0727,-3.0717,-3.072,-3.0723,-3.0687,-3.0687,-3.0687,0,0,-3.1092,-3.1068,-3.1058,-3.1034,-3.0997,-3.097,-3.0968,-3.0925,-3.0907,-3.0887,-3.0855,-3.0838,-3.0802,-3.0778,-3.0761,-3.0776,-3.0753,-3.077,-3.079,-3.0781,-3.0783,-3.0785,-3.0788,-3.079,-3.077,-3.077,-3.077,0,-3.1122,-3.1094,-3.1057,-3.1041,-3.1023,-3.0984,-3.0973,-3.0952,-3.091,-3.0899,-3.0888,-3.0839,-3.0814,-3.0792,-3.0795,-3.0784,-3.0779,-3.0774,-3.0786,-3.0788,-3.0789,-3.0791,-3.0793,-3.0772,-3.0772,-3.0772,-3.0772,0,-3.113,-3.1111,-3.1108,-3.1067,-3.1049,-3.1036,-3.0997,-3.0983,-3.096,-3.0933,-3.0912,-3.0879,-3.0848,-3.0842,-3.082,-3.0816,-3.081,-3.0794,-3.0775,-3.0795,-3.0796,-3.0797,-3.0776,-3.0775,-3.0774,-3.0774,0,0,-3.1188,-3.1125,-3.1124,-3.1103,-3.1059,-3.1043,-3.1028,-3.0996,-3.0984,-3.0956,-3.0941,-3.091,-3.0892,-3.0873,-3.0848,-3.0841,-3.0851,-3.0824,-3.0823,-3.0829,-3.0842,-3.0854,-3.0856,-3.0836,-3.0836,-3.0836,-3.0844,0,-3.1206,-3.1176,-3.1141,-3.1122,-3.1102,-3.1064,-3.105,-3.102,-3.0995,-3.0974,-3.0946,-3.0923,-3.0904,-3.0891,-3.0882,-3.0852,-3.0853,-3.0851,-3.082,-3.082,-3.0829,-3.0857,-3.087,-3.0879,-3.0845,-3.0845,-3.0845,0,-3.1224,-3.1196,-3.1175,-3.1129,-3.1119,-3.1108,-3.1074,-3.1056,-3.1021,-3.1002,-3.098,-3.0952,-3.0932,-3.0916,-3.0888,-3.0887,-3.0872,-3.0855,-3.0855,-3.085,-3.0833,-3.0851,-3.0882,-3.0883,-3.0846,-3.0846,-3.0846,0,-3.1265,-3.1222,-3.1203,-3.1187,-3.1134,-3.1126,-3.1104,-3.1068,-3.1051,-3.1022,-3.1009,-3.0979,-3.0962,-3.0939,-3.0904,-3.0896,-3.0878,-3.086,-3.0861,-3.0862,-3.0859,-3.0859,-3.0886,-3.0852,-3.0852,-3.0852,-3.0852,0,-3.1288,-3.1276,-3.122,-3.1209,-3.1193,-3.1153,-3.1139,-3.1113,-3.1081,-3.1063,-3.1029,-3.1012,-3.0967,-3.0945,-3.0917,-3.0896,-3.089,-3.0873,-3.0866,-3.0876,-3.0877,-3.0865,-3.0863,-3.0852,-3.0852,-3.0852,-3.0852,0,-3.1331,-3.1294,-3.127,-3.1221,-3.1208,-3.1199,-3.1157,-3.1143,-3.1115,-3.1092,-3.1084,-3.104,-3.1011,-3.0974,-3.0935,-3.0916,-3.0898,-3.0887,-3.0909,-3.0905,-3.0907,-3.0907,-3.0926,-3.0926,-3.0893,-3.0894,-3.0894,0,-3.1348,-3.1337,-3.1286,-3.1271,-3.1249,-3.1226,-3.1207,-3.1166,-3.1148,-3.1106,-3.1097,-3.1066,-3.1039,-3.0996,-3.096,-3.0929,-3.0917,-3.0925,-3.0912,-3.0921,-3.0914,-3.0915,-3.0913,-3.0928,-3.0929,-3.0929,-3.093,0,-3.138,-3.1361,-3.1335,-3.1302,-3.128,-3.1253,-3.1223,-3.1213,-3.1166,-3.1147,-3.1117,-3.1096,-3.1055,-3.1024,-3.0988,-3.0964,-3.0938,-3.0934,-3.0932,-3.0942,-3.0954,-3.0945,-3.0917,-3.0934,-3.0933,-3.0933,-3.0933,-3.0933,-3.1409,-3.1396,-3.1358,-3.133,-3.1303,-3.1276,-3.126,-3.1228,-3.1203,-3.1165,-3.1143,-3.1113,-3.1076,-3.1025,-3.1002,-3.0978,-3.0969,-3.0967,-3.0966,-3.0966,-3.0968,-3.0959,-3.0972,-3.0972,-3.0972,-3.0971,-3.0971,0,-3.1437,-3.141,-3.1385,-3.1343,-3.1321,-3.1298,-3.1264,-3.1246,-3.122,-3.1188,-3.1161,-3.1126,-3.1095,-3.1056,-3.1022,-3.101,-3.0998,-3.1003,-3.1003,-3.0997,-3.098,-3.0984,-3.1013,-3.1013,-3.1013,-3.1013,-3.1013,-3.1013,-3.145,-3.1427,-3.1403,-3.1366,-3.1339,-3.131,-3.1292,-3.1266,-3.1239,-3.1201,-3.1175,-3.1149,-3.1113,-3.1076,-3.1046,-3.1036,-3.1024,-3.1032,-3.1018,-3.1002,-3.0999,-3.0995,-3.0998,-3.1031,-3.1031,-3.1037,-3.1037,-3.1037]}]]